EW1669 Weather Reports


time (UTC)temp
C
wind
direction
speed
KPH
gust
KPH
rain 1hr
cm
rain 24hr
cm
rain mn
cm
humidity
%
barometer
mb
20260905050020 26 288 0.0 0.0 0.00 0.00 0.00 47 1018.0
20260905045404 26 288 0.0 0.0 0.00 0.00 0.00 47 1017.7
20260905044747 26 288 0.0 0.0 0.00 0.00 0.00 47 1017.7
20260905044112 26 292 0.0 0.0 0.00 0.00 0.00 47 1018.0
20260905043607 26 292 0.0 0.0 0.00 0.00 0.00 47 1017.7
20260905043006 26 292 0.0 0.0 0.00 0.00 0.00 47 1017.7
20260905042503 26 292 0.0 0.0 0.00 0.00 0.00 47 1017.7
20260905042042 26 291 0.0 0.0 0.00 0.00 0.00 47 1017.7
20260905041528 26 275 0.0 0.0 0.00 0.00 0.00 46 1017.7
20260905040659 26 272 0.0 0.0 0.00 0.00 0.00 47 1017.7
20260905040301 26 272 0.0 0.0 0.00 0.00 0.00 47 1017.3
20260905035358 26 271 0.0 1.6 0.00 0.00 0.00 46 1018.0
20260905034425 26 268 0.0 0.0 0.00 0.00 0.00 46 1017.7
20260905033711 27 294 0.0 0.0 0.00 0.00 0.00 46 1017.7
20260905033110 27 282 0.0 0.0 0.00 0.00 0.00 45 1018.0
20260905032418 27 281 0.0 0.0 0.00 0.00 0.00 45 1017.7
20260905031733 27 268 0.0 0.0 0.00 0.00 0.00 44 1017.7
20260905030838 27 268 0.0 0.0 0.00 0.00 0.00 44 1017.7
20260905030304 27 271 0.0 0.0 0.00 0.00 0.00 44 1017.3
20260905025708 27 283 0.0 0.0 0.00 0.00 0.00 44 1017.3
20260905025047 27 283 0.0 0.0 0.00 0.00 0.00 44 1017.3
20260905024359 28 269 0.0 0.0 0.00 0.00 0.00 44 1017.3
20260905023759 28 266 0.0 0.0 0.00 0.00 0.00 43 1017.3
20260905023549 28 253 0.0 0.0 0.00 0.00 0.00 42 1017.3
20260905022504 28 239 0.0 0.0 0.00 0.00 0.00 41 1017.7
20260905022055 28 242 0.0 0.0 0.00 0.00 0.00 39 1017.3
20260905021310 29 242 0.0 0.0 0.00 0.00 0.00 37 1017.3
20260905020923 30 186 0.0 0.0 0.00 0.00 0.00 34 1017.0
20260905020115 30 177 0.0 0.0 0.00 0.00 0.00 32 1017.0
20260905015510 31 172 0.0 0.0 0.00 0.00 0.00 31 1017.0
20260905015008 30 189 0.0 0.0 0.00 0.00 0.00 30 1017.0
20260905014414 30 193 0.0 0.0 0.00 0.00 0.00 30 1017.0
20260905013816 31 193 0.0 0.0 0.00 0.00 0.00 30 1016.7
20260905013312 31 193 0.0 1.6 0.00 0.00 0.00 30 1016.7
20260905012806 31 195 0.0 1.6 0.00 0.00 0.00 29 1016.7
20260905012151 31 194 0.0 1.6 0.00 0.00 0.00 30 1016.7
20260905011310 31 192 0.0 0.0 0.00 0.00 0.00 30 1016.7
20260905010648 31 193 0.0 0.0 0.00 0.00 0.00 30 1016.7
20260905010034 32 188 0.0 1.6 0.00 0.00 0.00 29 1016.7
20260905005521 32 191 0.0 1.6 0.00 0.00 0.00 26 1016.7
20260905004850 32 147 0.0 0.0 0.00 0.00 0.00 25 1016.7
20260905004222 32 145 0.0 0.0 0.00 0.00 0.00 25 1016.7
20260905003604 32 136 0.0 0.0 0.00 0.00 0.00 25 1016.3
20260905003248 32 130 0.0 0.0 0.00 0.00 0.00 26 1016.7
20260905002358 33 146 0.0 0.0 0.00 0.00 0.00 27 1016.3
20260905001715 33 143 0.0 0.0 0.00 0.00 0.00 27 1016.7
20260905001054 -17 0.0 0.0 0.00 0.00 0.00 1016.0
20260904235816 32 145 0.0 0.0 0.00 0.00 0.00 27 1016.3
20260904235145 32 134 0.0 1.6 0.00 0.00 0.00 28 1016.3
20260904234529 32 142 0.0 1.6 0.00 0.00 0.00 28 1016.7
20260904233926 32 129 0.0 6.4 0.00 0.00 0.00 28 1016.3
20260904233427 32 134 4.8 6.4 0.00 0.00 0.00 28 1016.3
20260904232908 32 152 3.2 4.8 0.00 0.00 0.00 28 1016.3
20260904232306 33 111 1.6 6.4 0.00 0.00 0.00 28 1016.0
20260904231705 33 130 0.0 11.3 0.00 0.00 0.00 27 1016.0
20260904231059 33 189 0.0 3.2 0.00 0.00 0.00 26 1016.0
20260904230416 33 138 0.0 6.4 0.00 0.00 0.00 26 1016.3
20260904230125 34 150 1.6 6.4 0.00 0.00 0.00 25 1016.0
20260904225319 34 135 0.0 3.2 0.00 0.00 0.00 25 1016.3
20260904224813 34 148 0.0 3.2 0.00 0.00 0.00 25 1016.0
20260904224256 34 136 0.0 3.2 0.00 0.00 0.00 25 1016.0
20260904223641 35 183 0.0 0.0 0.00 0.00 0.00 25 1015.6
20260904223029 34 203 0.0 0.0 0.00 0.00 0.00 25 1016.0
20260904222719 34 152 0.0 1.6 0.00 0.00 0.00 25 1016.0
20260904221822 35 125 0.0 1.6 0.00 0.00 0.00 25 1016.3
20260904221403 34 146 0.0 0.0 0.00 0.00 0.00 25 1016.0
20260904220634 35 162 0.0 0.0 0.00 0.00 0.00 24 1016.0
20260904220000 35 181 0.0 12.9 0.00 0.00 0.00 24 1016.0
20260904215417 34 143 6.4 12.9 0.00 0.00 0.00 25 1016.0
20260904215138 34 134 0.0 0.0 0.00 0.00 0.00 25 1016.3
20260904214407 34 140 1.6 6.4 0.00 0.00 0.00 25 1016.0
20260904214235 33 118 0.0 11.3 0.00 0.00 0.00 26 1016.3
20260904213126 34 133 6.4 11.3 0.00 0.00 0.00 26 1016.3
20260904212450 34 170 0.0 12.9 0.00 0.00 0.00 26 1016.3
20260904212055 34 117 4.8 12.9 0.00 0.00 0.00 26 1016.3
20260904211316 34 151 1.6 12.9 0.00 0.00 0.00 26 1016.7
20260904210921 35 138 0.0 17.7 0.00 0.00 0.00 25 1016.3
20260904210414 36 125 1.6 4.8 0.00 0.00 0.00 24 1016.7
20260904205526 36 141 0.0 14.5 0.00 0.00 0.00 23 1016.3
20260904204850 36 111 4.8 11.3 0.00 0.00 0.00 23 1016.7
20260904204005 35 136 4.8 6.4 0.00 0.00 0.00 25 1016.7
20260904203339 35 196 0.0 4.8 0.00 0.00 0.00 25 1017.0
20260904202828 35 226 0.0 4.8 0.00 0.00 0.00 25 1017.0
20260904202232 36 137 0.0 1.6 0.00 0.00 0.00 24 1016.7
20260904201659 37 184 0.0 17.7 0.00 0.00 0.00 22 1017.0
20260904200826 37 177 0.0 17.7 0.00 0.00 0.00 23 1017.0
20260904200325 37 210 6.4 11.3 0.00 0.00 0.00 23 1017.0
20260904195918 36 210 0.0 4.8 0.00 0.00 0.00 23 1017.3
20260904195306 35 188 0.0 16.1 0.00 0.00 0.00 25 1017.3
20260904194508 36 125 9.7 12.9 0.00 0.00 0.00 24 1017.0
20260904193902 36 172 0.0 1.6 0.00 0.00 0.00 24 1017.3
20260904193532 37 187 0.0 1.6 0.00 0.00 0.00 24 1017.3
20260904193031 35 194 0.0 12.9 0.00 0.00 0.00 25 1017.3
20260904192312 35 57 0.0 11.3 0.00 0.00 0.00 25 1017.7
20260904191658 35 137 4.8 16.1 0.00 0.00 0.00 26 1017.3
20260904191331 35 150 9.7 16.1 0.00 0.00 0.00 25 1017.7
20260904191040 36 191 0.0 0.0 0.00 0.00 0.00 24 1017.7
20260904190002 35 178 0.0 3.2 0.00 0.00 0.00 25 1017.7
20260904185902 35 142 1.6 3.2 0.00 0.00 0.00 25 1017.7
20260904184807 35 118 0.0 3.2 0.00 0.00 0.00 25 1018.0
20260904184520 35 140 0.0 4.8 0.00 0.00 0.00 27 1018.0
20260904183513 35 147 0.0 6.4 0.00 0.00 0.00 27 1018.0
20260904182859 35 155 0.0 3.2 0.00 0.00 0.00 26 1018.3
20260904182234 35 195 0.0 3.2 0.00 0.00 0.00 25 1018.3
20260904181553 36 159 0.0 1.6 0.00 0.00 0.00 26 1018.3
20260904180953 35 235 0.0 1.6 0.00 0.00 0.00 27 1018.3
20260904180338 35 189 0.0 1.6 0.00 0.00 0.00 25 1018.3
20260904180256 35 143 0.0 3.2 0.00 0.00 0.00 26 1018.7
20260904175159 35 239 1.6 6.4 0.00 0.00 0.00 27 1018.3
20260904174540 35 175 0.0 4.8 0.00 0.00 0.00 27 1018.7
20260904173900 35 180 1.6 4.8 0.00 0.00 0.00 27 1018.7
20260904173259 34 175 0.0 0.0 0.00 0.00 0.00 26 1018.7
20260904172624 33 311 0.0 0.0 0.00 0.00 0.00 28 1019.0
20260904171942 32 326 0.0 0.0 0.00 0.00 0.00 30 1018.7
20260904171310 32 316 0.0 0.0 0.00 0.00 0.00 30 1019.0
20260904170808 33 185 0.0 0.0 0.00 0.00 0.00 29 1018.7
20260904170158 33 226 0.0 0.0 0.00 0.00 0.00 29 1019.0
20260904165510 34 187 0.0 4.8 0.00 0.00 0.00 28 1018.7
20260904165001 34 207 0.0 4.8 0.00 0.00 0.00 29 1019.0
20260904164412 33 172 1.6 4.8 0.00 0.00 0.00 28 1018.7
20260904163859 33 183 0.0 11.3 0.00 0.00 0.00 29 1019.0
20260904163301 32 196 6.4 11.3 0.00 0.00 0.00 32 1018.7
20260904162845 32 218 4.8 12.9 0.00 0.00 0.00 31 1019.0
20260904162016 32 188 6.4 9.7 0.00 0.00 0.00 31 1019.0
20260904161409 32 203 0.0 0.0 0.00 0.00 0.00 31 1019.0
20260904160758 32 178 0.0 0.0 0.00 0.00 0.00 32 1019.0
20260904160133 31 187 0.0 1.6 0.00 0.00 0.00 33 1018.7
20260904155746 31 187 0.0 9.7 0.00 0.00 0.00 35 1018.7
20260904154838 31 174 0.0 11.3 0.00 0.00 0.00 35 1018.7
20260904154217 30 198 6.4 11.3 0.00 0.00 0.00 36 1018.3
20260904153616 30 179 9.7 11.3 0.00 0.00 0.00 35 1018.7
20260904153019 30 179 4.8 6.4 0.00 0.00 0.00 35 1018.3
20260904152734 29 190 3.2 8.0 0.00 0.00 0.00 37 1018.7
20260904151847 29 199 3.2 8.0 0.00 0.00 0.00 37 1018.7
20260904151243 29 192 3.2 6.4 0.00 0.00 0.00 38 1018.3
20260904150635 28 186 0.0 0.0 0.00 0.00 0.00 40 1018.3
20260904145955 28 192 0.0 0.0 0.00 0.00 0.00 40 1018.7
20260904145410 28 169 0.0 0.0 0.00 0.00 0.00 41 1018.3
20260904144746 27 196 0.0 0.0 0.00 0.00 0.00 42 1018.7
20260904144205 27 194 0.0 3.2 0.00 0.00 0.00 44 1018.3
20260904143518 27 141 0.0 4.8 0.00 0.00 0.00 46 1018.7
20260904142912 26 146 0.0 4.8 0.00 0.00 0.00 47 1018.7
20260904142542 26 138 1.6 4.8 0.00 0.00 0.00 47 1019.0
20260904141600 26 137 0.0 0.0 0.00 0.00 0.00 48 1018.3
20260904141016 26 150 0.0 0.0 0.00 0.00 0.00 47 1018.3
20260904140505 25 172 0.0 0.0 0.00 0.00 0.00 49 1018.3
20260904135921 25 177 0.0 0.0 0.00 0.00 0.00 49 1018.3
20260904135356 24 178 0.0 0.0 0.00 0.00 0.00 52 1018.3
20260904134748 23 178 0.0 0.0 0.00 0.00 0.00 56 1018.3
20260904134105 22 178 0.0 0.0 0.00 0.00 0.00 57 1018.0
20260904133940 22 178 0.0 0.0 0.00 0.00 0.00 57 1018.3
20260904132912 23 178 0.0 0.0 0.00 0.00 0.00 56 1018.0
20260904132538 22 178 0.0 0.0 0.00 0.00 0.00 58 1018.0
20260904131804 22 178 0.0 0.0 0.00 0.00 0.00 59 1018.0
20260904131210 21 178 0.0 0.0 0.00 0.00 0.00 60 1018.0
20260904130430 21 178 0.0 0.0 0.00 0.00 0.00 60 1018.0
20260904125800 20 178 0.0 0.0 0.00 0.00 0.00 62 1017.7
20260904125116 20 178 0.0 0.0 0.00 0.00 0.00 64 1017.7
20260904124453 20 179 0.0 0.0 0.00 0.00 0.00 64 1017.3
20260904123558 20 179 0.0 0.0 0.00 0.00 0.00 64 1017.3
20260904123008 20 179 0.0 0.0 0.00 0.00 0.00 64 1017.3
20260904122410 20 179 0.0 0.0 0.00 0.00 0.00 63 1017.3
20260904121625 20 179 0.0 0.0 0.00 0.00 0.00 62 1017.3
20260904121016 20 179 0.0 0.0 0.00 0.00 0.00 62 1017.0
20260904120410 21 179 0.0 0.0 0.00 0.00 0.00 62 1017.0
20260904115816 21 179 0.0 0.0 0.00 0.00 0.00 61 1017.3
20260904115258 21 179 0.0 0.0 0.00 0.00 0.00 60 1017.0
20260904114711 21 179 0.0 0.0 0.00 0.00 0.00 60 1017.0
20260904114044 21 179 0.0 0.0 0.00 0.00 0.00 59 1017.3
20260904113426 21 179 0.0 0.0 0.00 0.00 0.00 58 1017.3
20260904113035 21 179 0.0 0.0 0.00 0.00 0.00 59 1017.3
20260904112308 21 179 0.0 0.0 0.00 0.00 0.00 59 1017.3
20260904111715 22 179 0.0 0.0 0.00 0.00 0.00 58 1017.0
20260904111029 22 179 0.0 0.0 0.00 0.00 0.00 57 1017.3
20260904110358 22 179 0.0 0.0 0.00 0.00 0.00 57 1017.0
20260904105750 22 179 0.0 0.0 0.00 0.00 0.00 56 1017.3
20260904105216 22 179 0.0 0.0 0.00 0.00 0.00 56 1017.3
20260904104825 22 179 0.0 0.0 0.00 0.00 0.00 56 1017.3
20260904104017 22 179 0.0 0.0 0.00 0.00 0.00 55 1017.3
20260904103348 22 179 0.0 0.0 0.00 0.00 0.00 54 1017.3
20260904102617 22 179 0.0 0.0 0.00 0.00 0.00 53 1017.0
20260904102010 23 179 0.0 0.0 0.00 0.00 0.00 53 1017.0
20260904101358 23 178 0.0 0.0 0.00 0.00 0.00 53 1017.0
20260904101155 23 182 0.0 0.0 0.00 0.00 0.00 52 1017.3
20260904100207 23 182 0.0 0.0 0.00 0.00 0.00 52 1017.0
20260904095639 23 180 0.0 0.0 0.00 0.00 0.00 52 1017.0
20260904094959 23 179 0.0 1.6 0.00 0.00 0.00 50 1017.0
20260904094320 23 204 0.0 0.0 0.00 0.00 0.00 51 1017.3
20260904093708 23 201 0.0 0.0 0.00 0.00 0.00 51 1017.3
20260904093108 23 202 0.0 0.0 0.00 0.00 0.00 51 1017.0
20260904092500 23 192 0.0 0.0 0.00 0.00 0.00 51 1017.3
20260904091905 23 178 0.0 0.0 0.00 0.00 0.00 52 1017.3
20260904091252 23 178 0.0 0.0 0.00 0.00 0.00 52 1017.3
20260904090647 23 149 0.0 0.0 0.00 0.00 0.00 52 1017.3
20260904090045 23 152 0.0 0.0 0.00 0.00 0.00 51 1017.3
20260904085650 23 173 0.0 0.0 0.00 0.00 0.00 52 1017.3
20260904084900 23 174 0.0 0.0 0.00 0.00 0.00 52 1017.3
20260904084526 23 174 0.0 0.0 0.00 0.00 0.00 53 1017.3
20260904083859 23 174 0.0 4.8 0.00 0.00 0.00 52 1017.7
20260904083020 23 129 0.0 0.0 0.00 0.00 0.00 52 1017.3
20260904082402 23 126 0.0 0.0 0.00 0.00 0.00 52 1017.0
20260904081754 23 126 0.0 0.0 0.00 0.00 0.00 52 1017.3
20260904081134 23 126 0.0 0.0 0.00 0.00 0.00 51 1017.3
20260904080534 23 117 0.0 0.0 0.00 0.00 0.00 51 1017.3
20260904075913 23 130 0.0 0.0 0.00 0.00 0.00 51 1017.7
20260904075306 24 126 0.0 4.8 0.00 0.00 0.00 51 1017.3
20260904074657 24 115 0.0 3.2 0.00 0.00 0.00 50 1017.7
20260904074054 24 129 1.6 4.8 0.00 0.00 0.00 50 1017.7
20260904073450 24 117 1.6 4.8 0.00 0.00 0.00 50 1017.3
20260904072857 24 120 0.0 0.0 0.00 0.00 0.00 50 1017.3
20260904072240 25 111 0.0 6.4 0.00 0.00 0.00 49 1017.3
20260904071657 25 95 0.0 6.4 0.00 0.00 0.00 48 1017.7
20260904071053 25 105 1.6 4.8 0.00 0.00 0.00 48 1018.0
20260904070458 25 121 0.0 1.6 0.00 0.00 0.00 47 1018.0
20260904070122 25 105 0.0 6.4 0.00 0.00 0.00 47 1017.7
20260904065249 25 107 0.0 6.4 0.00 0.00 0.00 47 1018.0
20260904064650 25 108 0.0 0.0 0.00 0.00 0.00 46 1017.7
20260904064047 25 95 0.0 1.6 0.00 0.00 0.00 46 1017.7
20260904063442 25 108 0.0 3.2 0.00 0.00 0.00 45 1017.7
20260904062905 25 113 0.0 3.2 0.00 0.00 0.00 45 1017.7
20260904062150 26 118 0.0 1.6 0.00 0.00 0.00 44 1017.7
20260904061757 26 117 0.0 1.6 0.00 0.00 0.00 44 1017.7
20260904061219 26 124 0.0 3.2 0.00 0.00 0.00 44 1017.7
20260904060619 26 121 0.0 3.2 0.00 0.00 0.00 43 1017.3
20260904055740 26 124 1.6 9.7 0.00 0.00 0.00 42 1017.3
20260904054957 26 103 0.0 6.4 0.00 0.00 0.00 41 1017.7
20260904054348 26 100 1.6 9.7 0.00 0.00 0.00 41 1017.7
20260904053758 26 117 4.8 9.7 0.00 0.00 0.00 40 1017.3
20260904053147 27 109 0.0 6.4 0.00 0.00 0.00 39 1017.3
20260904052816 27 102 0.0 1.6 0.00 0.00 0.00 39 1017.3
20260904052012 27 101 0.0 0.0 0.00 0.00 0.00 39 1017.3
20260904051354 27 110 0.0 0.0 0.00 0.00 0.00 39 1017.3
20260904050745 26 110 0.0 0.0 0.00 0.00 0.00 39 1017.3